Home > Weather > Nouakchott > Past weeks

Flag for Mauritania Weather for the Past 2 Weeks in Nouakchott, Mauritania

Now
84 °F

Clear.


Feels Like: 81 °F
Forecast: N/A
Wind: 9 mph from Northeast

Location: Nouakchott Airport

Current Time: Feb 6, 2016 at 9:26:44 PM

Latest Report: Feb 6, 2016 at 9:00 PM


Visibility: 4 mi

Pressure: 29.98 "Hg

Humidity: 9%

Dew point: 19 °F

Location of NouakchottLocation

Historic Weather in Nouakchott — Graph

°F

Nouakchott Temperature Yesterday

Maximum temperature yesterday: 93 °F (at 2:30 PM)
Minimum temperature yesterday: 61 °F (at 8:00 AM)
Average temperature yesterday: 77 °F

High & Low Weather Summary for the Past Weeks

 TemperatureHumidityPressure
High95 °F (Feb 6, 4:30 PM)42% (Jan 27, 8:30 PM)30.12 "Hg (Jan 27, 8:30 PM)
Low61 °F (Jan 23, 6:30 AM)6% (Feb 4, 3:00 PM)29.89 "Hg (Feb 3, 3:30 PM)
Average78 °F15%30.02 "Hg
* Reported Jan 22 8:00 PM — Feb 6 8:00 PM, Nouakchott, Weather by CustomWeather, © 2016

Note: Actual official high and low records may vary slightly from our data, if they occured in-between our weather recording intervals... More about our weather records

Advertising

Nouakchott Weather History for the Previous 24 Hours

 ConditionsComfort  
Time TempWeatherWind HumidityBarometerVisibility
8:00 PM
Sat, Feb 6
86 °FClear.7 mph8%29.95 "Hg4 mi
7:30 PM88 °FClear.8 mph8%29.95 "Hg4 mi
7:00 PM88 °FClear.9 mph8%29.92 "Hg4 mi
6:30 PM90 °FClear.8 mph8%29.92 "Hg4 mi
6:00 PM91 °FClear.7 mph7%29.92 "Hg4 mi
5:30 PM95 °FClear.7 mph7%29.92 "Hg4 mi
5:00 PM95 °FClear.7 mph6%29.92 "Hg4 mi
4:30 PM95 °FClear.5 mph6%29.92 "Hg4 mi
4:00 PM93 °FClear.8 mph7%29.92 "Hg4 mi
3:30 PM93 °FClear.7 mph6%29.92 "Hg4 mi
3:00 PM93 °FClear.9 mph7%29.92 "Hg4 mi
2:30 PM93 °FClear.9 mph7%29.95 "Hg4 mi
2:00 PM93 °FClear.12 mph7%29.95 "Hg4 mi
1:30 PM91 °FClear.9 mph8%29.95 "Hg4 mi
1:00 PM90 °FClear.10 mph8%29.98 "Hg4 mi
12:30 PM88 °FClear.13 mph8%30.01 "Hg4 mi
12:00 PM88 °FClear.12 mph8%30.01 "Hg4 mi
11:30 AM86 °FClear.13 mph9%30.01 "Hg4 mi
11:00 AM82 °FClear.13 mph9%30.04 "Hg4 mi
10:30 AM79 °FClear.10 mph12%30.04 "Hg4 mi
10:00 AM75 °FClear.10 mph12%30.01 "Hg4 mi
9:30 AM72 °FClear.8 mph14%30.01 "Hg4 mi
9:00 AM70 °FClear.7 mph15%30.01 "Hg4 mi
8:30 AM68 °FClear.7 mph16%30.01 "Hg4 mi
8:00 AM68 °FClear.7 mph14%29.98 "Hg4 mi
7:30 AM68 °FClear.7 mph14%29.98 "Hg4 mi
7:00 AM64 °FClear.5 mph18%29.98 "Hg4 mi
6:30 AM64 °FClear.6 mph19%29.98 "Hg4 mi
6:00 AM64 °FClear.6 mph19%29.95 "Hg4 mi
5:30 AM64 °FClear.6 mph19%29.95 "Hg4 mi
5:00 AM66 °FClear.6 mph18%29.95 "Hg4 mi
4:00 AM66 °FClear.3 mph19%29.95 "Hg4 mi
3:30 AM66 °FClear.5 mph19%29.95 "Hg4 mi
3:00 AM66 °FClear.5 mph19%29.95 "Hg4 mi
2:00 AM68 °FClear.6 mph21%29.95 "Hg4 mi
1:00 AM70 °FClear.2 mph27%29.98 "Hg4 mi
12:30 AM72 °FClear.3 mph27%29.98 "Hg4 mi
12:00 AM72 °FClear.5 mph27%29.98 "Hg4 mi
11:30 PM
Fri, Feb 5
72 °FClear.5 mph29%29.98 "Hg4 mi
11:00 PM73 °FClear.5 mph29%29.98 "Hg4 mi
10:30 PM75 °FClear.6 mph29%29.98 "Hg4 mi
10:00 PM75 °FClear.5 mph29%29.98 "Hg4 mi
9:30 PM77 °FClear.6 mph24%29.98 "Hg4 mi
9:00 PM77 °FClear.18 mph22%29.95 "Hg4 mi
Weather by CustomWeather, © 2016

See weather overviewHow to use our weather pages